CZ-4B DEB (46471 NORAD) Tracking and Keplerian Element Data

This shows tracking and keplerian element data for the satellite.

Feedback or suggestion? Click here.




ElementValue
Catalog46471
NameCZ-4B DEB
Epoch Orbit411
Epoch Day294.81490986
Epoch Year2020
RAAN317.1818
Inclination66.0772
Eccentricity0.0040888
Argument of Perigee247.7963
Mean Anonmoly111.8768
Mean Motion13.88599286
Decay Rate-3.2E-07
L11 46471U 20066C 20294.81490986 -.00000032 00000-0 40797-4 0 9995
L22 46471 66.0772 317.1818 0040888 247.7963 111.8768 13.88599286 4114

Live tracking and technical data element details for CZ-4B DEB (NORAD 46471). CZ-4B DEB can be tracked NOW for your location showing map with azimuth and elevation plus other details from your city location.

Track the satellite on the map from your city or location and see movement details for azimuth, elevation, latitude, longitude, range, height, and movement on the map or in text.







IsCatalogInMostPopularTable: catalog: 46471, numindb: 16
Update: records affected: 1



GetName: 46471 CZ-4B DEB

Hit Count: updated at: Fri, 27 Nov 2020 00:15:55 GMT